Regional Weather Roundup
Issued by NWS

Home | Current Version | Previous Version | Graphics & Text | Print | Product List | Glossary Off
Versions: 1 2 3 4 5 6 7 8 9 10 11 12 13 14 15 16 17 18 19 20 21 22 23 24 25 26 27 28 29 30 31 32 33 34 35 36 37 38 39 40 41 42 43 44 45 46 47 48 49 50

000
ASUS43 KMKX 272321
RWRWI

WISCONSIN REGIONAL WEATHER ROUNDUP
NATIONAL WEATHER SERVICE MILWAUKEE/SULLIVAN WI
500 PM CST SAT DEC 27 2014

NOTE: "FAIR" INDICATES FEW OR NO CLOUDS BELOW 12,000 FEET WITH NO
SIGNIFICANT WEATHER AND/OR OBSTRUCTIONS TO VISIBILITY.

WIZ001-002-006>008-014>016-023>028-280000-
NORTHWEST WISCONSIN

CITY           SKY/WX    TMP DP  RH WIND       PRES   REMARKS
SUPERIOR ARPT  MOCLDY    24   8  50 SW3       30.01S
ASHLAND        CLEAR     17  11  77 SW5       30.00S WCI  10
HAYWARD        CLEAR     17  11  77 SW5       30.00S WCI  10
SIREN          CLEAR     21  13  71 SW6       30.04R WCI  13
CUMBERLAND     CLEAR     18  10  73 W7        30.02S WCI   8
RICE LAKE      CLEAR     20  14  77 SW5       30.05S WCI  13
CHETEK         CLEAR     19  14  80 SW3       30.05R
LADYSMITH      FAIR      20  16  83 W5        30.03R WCI  14
EAU CLAIRE     CLEAR     19  14  81 W7        30.07R WCI  10
MENOMONIE      CLEAR     21  15  76 CALM      30.08R
NEW RICHMOND   CLEAR     19  13  77 W7        30.08R WCI   9
OSCEOLA        CLEAR     20  13  75 SW7       30.10R WCI  11
$$

WIZ003>005-009-010-017-018-280000-
NORTH CENTRAL WISCONSIN

CITY           SKY/WX    TMP DP  RH WIND       PRES   REMARKS
MANITOWISH WTR CLOUDY    23  22  96 W8        29.94R WCI  14
ARBOR VITAE    CLOUDY    25  23  90 W6        29.93S WCI  18
WOODRUFF       CLOUDY    25  23  90 W6        29.93S WCI  18
RHINELANDER    CLOUDY    25  22  88 W9        29.94R WCI  15
EAGLE RIVER    CLOUDY    25  21  84 W13       29.92R WCI  14
LAND O LAKES   CLOUDY    26  24  93 NW6       29.92R WCI  19
PHILLIPS       CLOUDY    22  18  86 W6        29.97R WCI  14
TOMAHAWK       CLOUDY    26  22  87 W7        29.96R WCI  18
MEDFORD        CLOUDY    24  19  84 W12       29.99R WCI  12
MERRILL        CLOUDY    27  24  86 NW9       29.97R WCI  18
$$

WIZ029-030-035-036-043>047-280000-
CENTRAL WISCONSIN

CITY           SKY/WX    TMP DP  RH WIND       PRES   REMARKS
WAUSAU         CLOUDY    28  23  81 W14       29.97R WCI  17
MOSINEE        CLOUDY    27  25  93 W17G24    30.00R WCI  14
MARSHFIELD     CLOUDY    26  20  77 NW13      30.02R WCI  15
STEVENS POINT  CLOUDY    27  22  84 W9G17     30.02R WCI  17
WAUPACA        CLOUDY    34  29  82 W10       30.00R WCI  26
WAUTOMA        MOCLDY    30  26  85 NW15G24   30.02R WCI  19
WISC RAPIDS    CLOUDY    28  22  78 W13       30.04R WCI  17
CAMP DOUGLAS   CLOUDY    29  28  99 W16       30.06R WCI  17
$$

WIZ011>013-019>022-031-037>040-048>050-280000-
NORTHEAST WISCONSIN

CITY           SKY/WX    TMP DP  RH WIND       PRES   REMARKS
ANTIGO         CLOUDY    28  24  84 NW12      29.94R WCI  18
SHAWANO        CLOUDY    34  33  96 NW8       29.96R WCI  27
OCONTO         CLOUDY    32  32  99 W5        29.95R WCI  28
STURGEON BAY   CLOUDY    34  28  80 NW9       29.96R WCI  26
GREEN BAY      CLOUDY    34  31  88 NW10      29.96R WCI  26
MANITOWOC      MIX PCPN  35  33  92 NW10      29.96R WCI  27
APPLETON       CLOUDY    34  30  86 W10       29.97R WCI  26
CLINTONVILLE   CLOUDY    32  30  93 NW9G16    29.98R WCI  24
OSHKOSH        CLOUDY    33  27  78 W14G21    29.99R WCI  23
$$

WIZ032>034-041-042-053>061-280000-
SOUTHWEST WISCONSIN

CITY           SKY/WX    TMP DP  RH WIND       PRES   REMARKS
LA CROSSE      CLOUDY    26  20  77 W13       30.12R WCI  15
SPARTA         CLOUDY    27  22  82 W12       30.10R WCI  17
VIROQUA        CLOUDY    26  25  99 W10       30.07R WCI  15
BOSCOBEL       CLOUDY    31  23  72 W8        30.11R WCI  23
PRAIRIE DU CHI CLOUDY    27  21  77 W14       30.13R WCI  16
PLATTEVILLE    CLOUDY    31  26  83 W10       30.09S WCI  22
$$

WIZ056-057-062-063-064-067-068-280000-
SOUTH CENTRAL WISCONSIN

CITY           SKY/WX    TMP DP  RH WIND       PRES   REMARKS
REEDSBURG      CLOUDY    29  24  82 W12       30.06R WCI  19
BARABOO/DELLS  CLOUDY    29  25  86 W7        30.05R WCI  22
LONE ROCK      PTCLDY    34  24  67 W10       30.08R WCI  26
MINERAL POINT  CLOUDY    32  27  80 W7        30.07R WCI  26
MADISON        CLOUDY    32  26  78 W9        30.04R WCI  24
MIDDLETON      CLOUDY    32  28  83 W12       30.05R WCI  23
WATERTOWN      CLOUDY    32  29  87 W7G16     30.02R WCI  26
MONROE         CLOUDY    32  28  86 W14       30.06R WCI  22
JANESVILLE     CLOUDY    34  28  80 W13G18    30.05R WCI  25
$$

WIZ051-052-058>065-066-070>072-280000-
SOUTHEAST WISCONSIN

CITY           SKY/WX    TMP DP  RH WIND       PRES   REMARKS
MILWAUKEE      CLOUDY    36  26  67 NW18G25   30.01R WCI  26
WAUKESHA       CLOUDY    32  27  80 W14G23    30.01R WCI  22
MILWAUKEE/TIMM NOT AVBL
RACINE         CLOUDY    35  27  72 W12G20    30.02R WCI  27
BURLINGTON     CLOUDY    32  27  80 W13G18    30.03R WCI  23
KENOSHA        CLOUDY    34  28  79 W17       30.01S WCI  23
FOND DU LAC    CLOUDY    33  28  81 W15G23    29.99R WCI  23
SHEBOYGAN      CLOUDY    34  29  82 W16G24    29.97R WCI  24
WEST BEND      CLOUDY    32  28  86 W13G21    29.99R WCI  22
JUNEAU         CLOUDY    31  28  86 W10G16    30.02R WCI  22
$$

LSZ147-162-280000-
LAKE SUPERIOR

STATION/POSITION TIME  TEMP    WIND        PRES    WAVE
                       AIR SEA DIR/SP/G            HT/PER
                 (UTC) (F)     (DEG/KT/KT) (MB)    (FT/S)
DEVILS ISLAND    2300   26     270/ 17/ 21 1016.2R
PORT WING        2240   24     200/  5/  7 1015.9F
SAXON HARBOR     2200   24     230/  3/ 12 1015.9R
$$

LMZ867-665-643>646-280000-
LAKE MICHIGAN

STATION/POSITION TIME  TEMP    WIND        PRES    WAVE
                       AIR SEA DIR/SP/G            HT/PER
                 (UTC) (F)     (DEG/KT/KT) (MB)    (FT/S)
CHAMBERS ISLAND  2200   33     290/  6/  9 1012.9R
NORTHPORT PIER   2300   34     300/  9/ 19 1013.2R
SISTER BAY       2213          330/ 12/ 14   N/A
ALGOMA LAKESHORE 2245          320/  9/ 12   N/A
KEWAUNEE LAKESHO 2300   33     310/  7/  9 1013.2R
SHEBOYGAN LAKESH 2300   35 38  290/ 14/ 17 1015.8R
PORT WASHINGTON  2220   36     290/ 13/ 22 1015.9R
MILWAUKEE LAKESH 2300   35     300/ 12/ 19   N/A
KENOSHA   LAKESH 2300   35     270/ 15/ 20 1016.6R
$$

TC  - TEMPERATURE IN CELSIUS
VSB - VISIBILITY IN STATUTE MILES
WCI - WIND CHILL INDEX
HX  - HEAT INDEX




USA.gov is the U.S. government's official web portal to all federal, state and local government web resources and services.